Weather History for Branson, MO

Change the Weather History Date:

Monday, December 16, 2013

  Actual Average (KHRO) Record (KHRO)
Temperature  
Mean Temperature 52 °F 38 °F  
Max Temperature 62 °F 47 °F 78 °F (1924)
Min Temperature 42 °F 28 °F -4 °F (1989)
Degree Days  
Heating Degree Days 13 27  
Month to date heating degree days 406  
Since 1 July heating degree days 1170  
Cooling Degree Days 0 0  
Month to date cooling degree days 0  
Year to date cooling degree days 1416  
Growing Degree Days 2 (Base 50)    
Moisture  
Dew Point 30 °F    
Average Humidity 42    
Maximum Humidity 57    
Minimum Humidity 30    
Precipitation  
Precipitation 0.00 in 0.09 in 2.81 in (2001)
Month to date precipitation 1.78  
Year to date precipitation 42.72  
Snow  
Snow 0.00 in 0.00 in 2.00 in (1911)
Month to date snowfall 0.0  
Since 1 July snowfall 0.5  
Snow Depth -    
Sea Level Pressure  
Sea Level Pressure 30.09 in    
Wind  
Wind Speed 10 mph (WSW)    
Max Wind Speed 14 mph    
Max Gust Speed 22 mph    
Visibility 10 miles    
Events      
T = Trace of Precipitation, MM = Missing Value Source: NWS Daily Summary

Daily Weather History Graph

Daily Weather History Graph

Search for Another Location

Airport:

Trip Planner

Search our weather history database for the weather conditions in past years. The results will help you decide how hot, cold, wet, or windy it might be!

Date:

Astronomy

Dec. 16, 2013 Rise Set
Actual Time 7:18 AM CST 4:58 PM CST
Civil Twilight 6:49 AM CST 5:27 PM CST
Nautical Twilight 6:17 AM CST 6:00 PM CST
Astronomical Twilight 5:45 AM CST 6:31 PM CST
Moon 4:48 PM CST (12/16) 6:28 AM CST (12/16)
Length of Visible Light 10h 38m
Length of Day
9h 40m
Full, 100% of the Moon is Illuminated
Dec 16
Full
Dec 17
Full
Dec 25
Last Quarter
Jan 1
New
Jan 7
First Quarter

Hourly Weather History & Observations

Time (CST) Temp. Windchill Dew Point Humidity Pressure Visibility Wind Dir Wind Speed Gust Speed Precip Events Conditions
12:15 AM 42.8 °F 37.0 °F - N/A% 30.09 in 10.0 mi SW 10.4 mph 17.3 mph N/A   Clear
12:35 AM 42.8 °F 36.2 °F - N/A% 30.08 in 10.0 mi SW 12.7 mph 17.3 mph N/A   Clear
12:55 AM 42.8 °F 36.6 °F - N/A% 30.09 in 10.0 mi SW 11.5 mph 17.3 mph N/A   Clear
1:15 AM 42.8 °F 37.0 °F - N/A% 30.08 in 10.0 mi SW 10.4 mph 19.6 mph N/A   Clear
1:35 AM 42.8 °F 37.0 °F - N/A% 30.08 in 10.0 mi SW 10.4 mph 17.3 mph N/A   Clear
1:55 AM 42.8 °F 37.5 °F - N/A% 30.09 in 10.0 mi SW 9.2 mph 17.3 mph N/A   Clear
2:15 AM 42.8 °F 38.0 °F - N/A% 30.09 in 10.0 mi SW 8.1 mph 16.1 mph N/A   Clear
2:35 AM 42.8 °F 37.5 °F - N/A% 30.09 in 10.0 mi SW 9.2 mph - N/A   Clear
4:15 AM 42.8 °F 37.0 °F - N/A% 30.08 in 10.0 mi WSW 10.4 mph - N/A   Clear
4:35 AM 44.6 °F 39.7 °F - N/A% 30.08 in 10.0 mi SW 9.2 mph 16.1 mph N/A   Clear
4:55 AM 42.8 °F 38.0 °F - N/A% 30.08 in 10.0 mi WSW 8.1 mph - N/A   Clear
5:15 AM 44.6 °F 40.7 °F - N/A% 30.08 in 10.0 mi WSW 6.9 mph - N/A   Clear
5:35 AM 44.6 °F 40.2 °F - N/A% 30.08 in 10.0 mi WSW 8.1 mph - N/A   Clear
5:55 AM 44.6 °F 39.7 °F - N/A% 30.08 in 10.0 mi SW 9.2 mph - N/A   Clear
6:15 AM 44.6 °F 40.2 °F - N/A% 30.08 in 10.0 mi WSW 8.1 mph - N/A   Clear
6:35 AM 44.6 °F 41.4 °F - N/A% 30.08 in 10.0 mi SW 5.8 mph - N/A   Clear
6:55 AM 44.6 °F 39.7 °F 30.2 °F 57% 30.09 in 10.0 mi WSW 9.2 mph - N/A   Mostly Cloudy
7:50 AM 44.6 °F 39.2 °F 28.4 °F 53% 30.09 in 10.0 mi WSW 10.4 mph - N/A   Mostly Cloudy
8:45 AM 44.6 °F 38.1 °F 30.2 °F 57% 30.11 in 10.0 mi WSW 13.8 mph - N/A   Partly Cloudy
9:50 AM 48.2 °F - 30.2 °F 50% 30.12 in 10.0 mi WSW 11.5 mph 21.9 mph N/A   Partly Cloudy
10:50 AM 53.6 °F - 30.2 °F 41% 30.11 in 10.0 mi WSW 10.4 mph 19.6 mph N/A   Partly Cloudy
11:53 AM 55.4 °F - 30.2 °F 38% 30.08 in 10.0 mi WSW 13.8 mph 20.7 mph N/A   Clear
12:51 PM 57.2 °F - 30.2 °F 36% 30.06 in 10.0 mi WSW 9.2 mph 19.6 mph N/A   Clear
1:45 PM 59.0 °F - 32.0 °F 36% 30.05 in 10.0 mi West 11.5 mph - N/A   Partly Cloudy
2:50 PM 62.6 °F - 30.2 °F 30% 30.05 in 10.0 mi WSW 11.5 mph 17.3 mph N/A   Partly Cloudy
3:50 PM 60.8 °F - 30.2 °F 31% 30.06 in 10.0 mi SW 11.5 mph - N/A   Partly Cloudy
4:47 PM 57.2 °F - 30.2 °F 36% 30.06 in 10.0 mi WSW 8.1 mph - N/A   Clear
5:49 PM 55.4 °F - 30.2 °F 38% 30.06 in 10.0 mi WSW 9.2 mph - N/A   Clear
6:46 PM 53.6 °F - 30.2 °F 41% 30.08 in 10.0 mi West 8.1 mph - N/A   Clear
7:51 PM 51.8 °F - 30.2 °F 44% 30.10 in 10.0 mi West 6.9 mph - N/A   Clear
8:46 PM 50.0 °F - 30.2 °F 47% 30.10 in 10.0 mi West 9.2 mph - N/A   Clear
9:15 PM 50.0 °F - - N/A% 30.11 in 10.0 mi West 3.5 mph - N/A   Clear
9:35 PM 50.0 °F - - N/A% 30.11 in 10.0 mi SW 6.9 mph - N/A   Clear
9:55 PM 50.0 °F - - N/A% 30.11 in 10.0 mi SW 5.8 mph - N/A   Clear
10:15 PM 50.0 °F - - N/A% 30.12 in 10.0 mi WSW 8.1 mph - N/A   Clear
10:35 PM 48.2 °F - - N/A% 30.12 in 10.0 mi West 5.8 mph - N/A   Clear
10:55 PM 48.2 °F - - N/A% 30.13 in 10.0 mi WSW 5.8 mph - N/A   Clear
11:15 PM 48.2 °F - - N/A% 30.13 in 10.0 mi WSW 4.6 mph - N/A   Clear
11:55 PM 48.2 °F - - N/A% 30.13 in 10.0 mi WSW 6.9 mph - N/A   Clear